Weather History for Mountain Home, ID

Change the Weather History Date:

Thursday, April 11, 2013

  Actual Average Record
Temperature  
Mean Temperature 49 °F 48 °F  
Max Temperature 60 °F 61 °F 83 °F (1949)
Min Temperature 38 °F 34 °F 13 °F (1922)
Degree Days  
Heating Degree Days 16 17  
Month to date heating degree days 148 198  
Cooling Degree Days 0 0  
Month to date cooling degree days 0 0  
Moisture  
Dew Point 27 °F    
Average Humidity 50    
Maximum Humidity 81    
Minimum Humidity 20    
Precipitation  
Precipitation 0.00 in 0.03 in 0.26 in (1982)
Month to date precipitation 0.31 0.40  
Sea Level Pressure  
Sea Level Pressure 30.02 in    
Wind  
Wind Speed 20 mph (NW)    
Max Wind Speed 28 mph    
Max Gust Speed 36 mph    
Visibility 10 miles    
Events      
T = Trace of Precipitation, MM = Missing Value Source: NWS Daily Summary

Daily Weather History Graph

Daily Weather History Graph

Search for Another Location

Airport:

Trip Planner

Search our weather history database for the weather conditions in past years. The results will help you decide how hot, cold, wet, or windy it might be!

Date:

Astronomy

Apr. 11, 2013 Rise Set
Actual Time 7:07 AM MDT 8:21 PM MDT
Civil Twilight 6:38 AM MDT 8:51 PM MDT
Nautical Twilight 6:03 AM MDT 9:26 PM MDT
Astronomical Twilight 5:26 AM MDT 10:03 PM MDT
Moon 7:39 AM MDT (4/11) 10:03 PM MDT (4/11)
Length of Visible Light 14h 12m
Length of Day
13h 14m
New Moon, 2% of the Moon is Illuminated
Apr 11
New Moon
Apr 18
First Quarter
Apr 25
Full
May 2
Last Quarter
May 9
New

Hourly Weather History & Observations

Time (MDT) Temp. Windchill Dew Point Humidity Pressure Visibility Wind Dir Wind Speed Gust Speed Precip Events Conditions
12:18 AM 48.2 °F - 41.0 °F 76% 29.99 in 10.0 mi WNW 17.3 mph 25.3 mph N/A   Mostly Cloudy
12:43 AM 46.4 °F 39.5 °F 41.0 °F 81% 30.01 in 10.0 mi WNW 17.3 mph - N/A   Overcast
12:58 AM 45.9 °F 38.5 °F 39.6 °F 79% 29.99 in 10.0 mi WNW 18.4 mph - N/A   Scattered Clouds
1:58 AM 44.6 °F 36.6 °F 35.6 °F 71% 30.00 in 10.0 mi WNW 19.6 mph - N/A   Clear
2:58 AM 43.3 °F 35.5 °F 33.4 °F 68% 30.03 in 10.0 mi WNW 17.3 mph 25.3 mph N/A   Clear
3:58 AM 41.0 °F 32.2 °F 31.8 °F 70% 30.03 in 10.0 mi WNW 18.4 mph - N/A   Clear
4:58 AM 39.4 °F 29.8 °F 31.1 °F 72% 30.04 in 10.0 mi WNW 19.6 mph - N/A   Clear
5:58 AM 38.7 °F 27.8 °F 29.8 °F 71% 30.05 in 10.0 mi NW 24.2 mph - N/A   Clear
6:58 AM 38.5 °F 27.8 °F 28.2 °F 67% 30.06 in 10.0 mi NW 23.0 mph 31.1 mph N/A   Clear
7:58 AM 38.8 °F 27.8 °F 28.0 °F 65% 30.08 in 10.0 mi WNW 25.3 mph 33.4 mph N/A   Clear
8:58 AM 41.7 °F 32.3 °F 28.2 °F 59% 30.09 in 10.0 mi NW 21.9 mph 28.8 mph N/A   Clear
9:58 AM 45.5 °F 37.1 °F 28.6 °F 52% 30.09 in 10.0 mi NW 23.0 mph - N/A   Clear
10:58 AM 48.7 °F - 28.9 °F 46% 30.08 in 10.0 mi NW 21.9 mph 29.9 mph N/A   Clear
11:58 AM 51.6 °F - 26.8 °F 38% 30.08 in 10.0 mi NW 26.5 mph 32.2 mph N/A   Clear
12:58 PM 54.9 °F - 26.2 °F 33% 30.05 in 10.0 mi NW 26.5 mph 32.2 mph N/A   Clear
1:58 PM 55.8 °F - 25.2 °F 31% 30.02 in 10.0 mi NW 23.0 mph 29.9 mph N/A   Clear
2:58 PM 58.1 °F - 23.9 °F 27% 29.99 in 10.0 mi NW 23.0 mph 34.5 mph N/A   Clear
3:58 PM 59.5 °F - 22.1 °F 24% 29.97 in 10.0 mi NW 25.3 mph 35.7 mph N/A   Clear
4:58 PM 58.3 °F - 18.5 °F 21% 29.96 in 10.0 mi NW 27.6 mph 33.4 mph N/A   Mostly Cloudy
5:58 PM 58.1 °F - 16.7 °F 20% 29.95 in 10.0 mi NNW 25.3 mph 31.1 mph N/A   Partly Cloudy
6:58 PM 56.1 °F - 21.0 °F 26% 29.96 in 10.0 mi NNW 23.0 mph - N/A   Partly Cloudy
7:58 PM 55.2 °F - 16.2 °F 22% 29.96 in 10.0 mi NNW 16.1 mph - N/A   Clear
8:58 PM 51.8 °F - 20.3 °F 29% 29.98 in 10.0 mi NNW 13.8 mph - N/A   Clear
9:58 PM 44.4 °F 39.0 °F 22.3 °F 42% 30.00 in 10.0 mi WNW 10.4 mph - N/A   Clear
10:58 PM 40.3 °F 33.9 °F 22.6 °F 49% 30.02 in 10.0 mi West 10.4 mph - N/A   Clear
11:58 PM 42.3 °F 34.8 °F 26.4 °F 54% 30.01 in 10.0 mi WNW 15.0 mph - N/A   Clear